Location: Unspecified
(49.9820°N, 20.4363°E)
Time: 04:56:10
(UTC+02:00)

Vanguard 3 - Pass Details

Date: 18 May 2026
Orbit: 507 x 3204 km, 33.3° (Epoch: 6 June)

Event Time Altitude Azimuth Distance (km) Brightness Sun altitude
Rises 14:41:32 0° 243° (WSW) 6,602 12.4 50.6°
Reaches altitude 10° 14:45:54 10° 237° (WSW) 5,814 12.4 50.0°
Maximum altitude 15:03:06 45° 174° (S) 3,929 11.5 47.8°
Drops below altitude 10° 15:19:11 10° 110° (ESE) 5,471 11.2 45.5°
Sets 15:23:08 0° 104° (ESE) 6,201 11.3 45.0°
